Weather History for Litchfield, IL

Change the Weather History Date:

Saturday, October 13, 2012

  Actual Average (KSPI) Record (KSPI)
Temperature  
Mean Temperature 64 °F 56 °F  
Max Temperature 76 °F 68 °F 88 °F (1975)
Min Temperature 52 °F 44 °F 26 °F (1909)
Degree Days  
Heating Degree Days 1 10  
Month to date heating degree days 105  
Since 1 July heating degree days 186  
Cooling Degree Days 0 1  
Month to date cooling degree days 15  
Year to date cooling degree days 1114  
Growing Degree Days 14 (Base 50)    
Moisture  
Dew Point 57 °F    
Average Humidity 81    
Maximum Humidity 97    
Minimum Humidity 50    
Precipitation  
Precipitation 0.00 in 0.10 in 1.97 in (1885)
Month to date precipitation 1.28  
Year to date precipitation 29.83  
Snow  
Snow 0.00 in 0.00 in T in (1936)
Month to date snowfall 0.0  
Since 1 July snowfall 0.0  
Since 1 September snowfall 0.0  
Snow Depth -    
Sea Level Pressure  
Sea Level Pressure 30.03 in    
Wind  
Wind Speed 13 mph (SSE)    
Max Wind Speed 24 mph    
Max Gust Speed 30 mph    
Visibility 6 miles    
Events Fog , Thunderstorm    
T = Trace of Precipitation, MM = Missing Value Source: NWS Daily Summary

Daily Weather History Graph

Daily Weather History Graph

Search for Another Location

Airport:

Trip Planner

Search our weather history database for the weather conditions in past years. The results will help you decide how hot, cold, wet, or windy it might be!

Date:

Astronomy

Oct. 13, 2012 Rise Set
Actual Time 7:06 AM CDT 6:22 PM CDT
Civil Twilight 6:39 AM CDT 6:48 PM CDT
Nautical Twilight 6:08 AM CDT 7:19 PM CDT
Astronomical Twilight 5:37 AM CDT 7:50 PM CDT
Moon 4:57 AM CDT (10/13) 5:05 PM CDT (10/13)
Length of Visible Light 12h 09m
Length of Day
11h 15m
Waning Crescent, 5% of the Moon is Illuminated
Oct 13
Waning Crescent
Oct 15
New
Oct 21
First Quarter
Oct 29
Full
Nov 6
Last Quarter

Hourly Weather History & Observations

Time (CDT) Temp. Dew Point Humidity Pressure Visibility Wind Dir Wind Speed Gust Speed Precip Events Conditions
12:15 AM 54.0 °F 47.1 °F 78% 30.23 in 0.8 mi SSE 8.1 mph - N/A   Haze
12:35 AM 53.4 °F 46.9 °F 79% 30.22 in 1.0 mi SSE 6.9 mph - N/A   Haze
12:55 AM 52.9 °F 46.9 °F 80% 30.23 in 0.5 mi SE 5.8 mph - N/A   Haze
1:15 AM 52.2 °F 47.3 °F 83% 30.21 in 2.0 mi SE 6.9 mph - N/A   Haze
1:35 AM 52.2 °F 47.5 °F 84% 30.20 in 2.5 mi SE 8.1 mph - N/A   Haze
2:15 AM 52.2 °F 48.2 °F 86% 30.18 in 3.0 mi SE 9.2 mph - N/A   Clear
2:35 AM 52.0 °F 48.4 °F 88% 30.17 in 5.0 mi SE 11.5 mph - N/A   Clear
2:55 AM 52.5 °F 48.7 °F 87% 30.16 in 2.0 mi SE 11.5 mph - N/A   Clear
3:15 AM 52.7 °F 49.1 °F 88% 30.15 in 2.0 mi SE 10.4 mph - N/A   Clear
3:35 AM 52.3 °F 49.3 °F 89% 30.13 in 2.0 mi SE 11.5 mph - N/A   Clear
3:55 AM 52.7 °F 49.8 °F 90% 30.13 in 1.2 mi SSE 11.5 mph - N/A   Mist
5:35 AM 54.1 °F 51.8 °F 92% 30.12 in 7.0 mi SSE 17.3 mph - N/A   Scattered Clouds
5:55 AM 54.5 °F 52.2 °F 92% 30.12 in 5.0 mi SSE 17.3 mph - N/A   Overcast
6:15 AM 54.3 °F 52.5 °F 94% 30.13 in 3.0 mi South 15.0 mph - N/A   Overcast
6:35 AM 54.1 °F 52.9 °F 95% 30.12 in 1.0 mi SSE 10.4 mph - N/A   Overcast
7:15 AM 55.0 °F 54.0 °F 96% 30.11 in 0.5 mi SSE 12.7 mph - N/A Fog Fog
7:55 AM 55.9 °F 55.0 °F 97% 30.11 in 0.5 mi South 16.1 mph - N/A Fog Fog
8:15 AM 56.5 °F 55.6 °F 97% 30.09 in 0.5 mi South 16.1 mph 21.9 mph N/A Fog Fog
8:55 AM 57.9 °F 57.0 °F 97% 30.08 in 0.8 mi South 16.1 mph - N/A   Overcast
9:15 AM 58.1 °F 57.2 °F 97% 30.07 in 1.2 mi South 17.3 mph 21.9 mph N/A   Overcast
9:35 AM 58.6 °F 57.7 °F 97% 30.07 in 1.8 mi South 16.1 mph 24.2 mph N/A   Overcast
9:55 AM 59.2 °F 58.3 °F 97% 30.07 in 2.0 mi South 19.6 mph - N/A   Overcast
10:15 AM 60.1 °F 59.0 °F 96% 30.08 in 4.0 mi South 17.3 mph - N/A   Overcast
11:35 AM 63.9 °F 60.8 °F 90% 30.06 in 5.0 mi South 16.1 mph - N/A   Overcast
11:55 AM 65.7 °F 61.2 °F 85% 30.05 in 7.0 mi South 15.0 mph 23.0 mph N/A   Overcast
12:15 PM 67.5 °F 61.5 °F 81% 30.03 in 7.0 mi South 18.4 mph 24.2 mph N/A   Mostly Cloudy
12:35 PM 67.8 °F 61.7 °F 81% 30.02 in 7.0 mi South 20.7 mph - N/A   Scattered Clouds
12:55 PM 68.5 °F 61.9 °F 79% 30.00 in 7.0 mi South 19.6 mph 25.3 mph N/A   Mostly Cloudy
1:15 PM 69.8 °F 61.9 °F 76% 30.00 in 7.0 mi South 20.7 mph 27.6 mph N/A   Mostly Cloudy
1:35 PM 71.6 °F 62.4 °F 73% 29.99 in 10.0 mi SSW 21.9 mph 25.3 mph N/A   Mostly Cloudy
2:15 PM 75.0 °F 63.3 °F 67% 29.97 in 10.0 mi SSW 19.6 mph 24.2 mph N/A   Scattered Clouds
2:35 PM 75.7 °F 63.5 °F 66% 29.96 in 10.0 mi South 18.4 mph 24.2 mph N/A   Scattered Clouds
2:55 PM 76.6 °F 62.8 °F 62% 29.95 in 10.0 mi SSW 24.2 mph 29.9 mph N/A   Clear
3:15 PM 76.6 °F 62.1 °F 61% 29.94 in 10.0 mi SSW 24.2 mph 28.8 mph N/A   Clear
3:35 PM 75.4 °F 55.8 °F 50% - - SSW 24.2 mph 28.8 mph N/A   Unknown
3:55 PM 75.0 °F 62.2 °F 64% 29.93 in 10.0 mi South 20.7 mph 25.3 mph N/A   Mostly Cloudy
4:15 PM 74.7 °F 61.9 °F 64% 29.94 in 10.0 mi South 16.1 mph 24.2 mph N/A   Scattered Clouds
4:55 PM 73.6 °F 61.7 °F 66% 29.92 in 10.0 mi South 20.7 mph 27.6 mph N/A   Clear
5:15 PM 72.1 °F 62.4 °F 71% 29.92 in 10.0 mi South 20.7 mph 25.3 mph N/A   Clear
5:55 PM 70.7 °F 61.9 °F 74% 29.92 in 10.0 mi South 18.4 mph 23.0 mph N/A   Clear
6:15 PM 70.2 °F 61.9 °F 75% 29.93 in 10.0 mi South 17.3 mph 24.2 mph N/A   Clear
6:35 PM 70.0 °F 61.9 °F 75% 29.93 in 10.0 mi South 15.0 mph 20.7 mph N/A   Clear
6:55 PM 69.6 °F 61.9 °F 76% 29.93 in 10.0 mi South 13.8 mph - N/A   Clear
8:35 PM 68.9 °F 62.6 °F 80% 29.91 in 10.0 mi SSE 9.2 mph - N/A   Overcast
8:55 PM 69.1 °F 62.6 °F 80% 29.90 in 10.0 mi SSE 8.1 mph - N/A   Mostly Cloudy
9:15 PM 69.1 °F 62.8 °F 80% 29.89 in 10.0 mi SE 9.2 mph - N/A Thunderstorm Scattered Clouds
9:55 PM 69.1 °F 63.0 °F 81% 29.87 in 10.0 mi SE 9.2 mph - N/A   Scattered Clouds
10:15 PM 69.8 °F 63.0 °F 79% 29.86 in 10.0 mi SE 11.5 mph - N/A   Scattered Clouds
10:55 PM 70.3 °F 62.2 °F 75% 29.83 in 10.0 mi SSE 19.6 mph 25.3 mph N/A   Mostly Cloudy
11:35 PM 69.8 °F 61.3 °F 74% 29.81 in 10.0 mi South 18.4 mph - N/A   Mostly Cloudy